Regional Weather Roundup
Issued by NWS San Diego, CA

Home | Current Version | Previous Version | Text Only | Print | Product List | Glossary On
Versions: 1 2 3 4 5 6 7 8 9 10 11 12 13 14 15 16 17 18 19 20 21 22 23 24 25 26 27 28 29 30 31 32 33 34 35 36 37 38 39 40 41 42 43 44 45 46 47 48 49 50
000
ASUS46 KSGX 280411
RWRSGX

SAN DIEGO HOURLY WEATHER ROUNDUP
NATIONAL WEATHER SERVICE SAN DIEGO CA
900 PM PDT MON JUL 27 2015

NOTE: "FAIR" INDICATES FEW OR NO CLOUDS BELOW 12,000 FEET WITH NO
SIGNIFICANT WEATHER AND/OR OBSTRUCTIONS TO VISIBILITY.

CAZ042-043-060-061-PZZ750-775-280500-

GREATER SAN DIEGO AREA

CITY           SKY/WX    TMP DP  RH WIND       PRES   REMARKS
LINDBERGH FLD  PTCLDY    69  60  73 NW6       29.91R
POINT LOMA       N/A     64  58  82 W8          N/A
NATIONAL CITY    N/A     69  62  78 CALM      29.91R
CHULA VISTA      N/A     68  63  85 CALM      29.83R
IMPERIAL BEACH PTCLDY    69  60  73 W6        29.91R
BROWN FIELD    CLEAR     65  60  84 W5        29.91R
MIRAMAR MCAS   PTCLDY    69  59  70 W6        29.91R
MONTGOMERY FLD CLEAR     68  60  75 W6        29.91R

$$

NORTH SAN DIEGO COUNTY

CITY           SKY/WX    TMP DP  RH WIND       PRES   REMARKS
CAMP PENDLETON CLEAR     67  59  75 CALM      29.90R
OCEANSIDE AP   CLEAR     67  60  78 CALM      29.89R
OCEANSIDE HBR    N/A     68  64  85 SW2       29.92R
VISTA            N/A     67  61  81 CALM      29.88R
CARLSBAD       CLEAR     67  61  81 W3        29.89S
DEL MAR          N/A     66  62  86 CALM      29.92S
LA JOLLA SCRIP   N/A    N/A N/A N/A CALM      29.87S
FALLBROOK        N/A     66  63  90 CALM      29.89R
ESCONDIDO        N/A     69  61  74 W3        29.91S
SAN MARCOS       N/A     67  61  80 CALM      29.88R
POWAY            N/A     68  60  75 CALM      29.90R

$$

EAST SAN DIEGO COUNTY

CITY           SKY/WX    TMP DP  RH WIND       PRES   REMARKS
RAMONA         CLEAR     65  58  78 W5        29.92R
SANTEE LAKES     N/A     69  61  76 W5        29.88R
LA MESA          N/A     67  60  79 CALM      29.83R
JAMUL            N/A     66  59  78 CALM      29.89R
DESCANSO N       N/A     61  50  68 NE3       29.77S
CAMPO            N/A     67  53  61 CALM      29.93R

$$

ORANGE COUNTY AND THE LOS ANGELES BASIN

CITY           SKY/WX    TMP DP  RH WIND       PRES   REMARKS
JOHN WAYNE AP  CLEAR     69  62  78 S3        29.89R
LAKE FOREST FR   N/A     68  58  69 CALM      29.80R
SANTA ANA        N/A     73  62  68 CALM      29.84R
HUNTINGTON BCH   N/A     70  66  86 W3        29.90R
LOS ALAMITOS   FAIR      71  63  75 NW5       29.88R
FULLERTON      CLEAR     73  61  65 S5        29.88R
LONG BEACH     CLEAR     73  64  73 NW9       29.88R
L.A. AP        MOCLDY    68  64  87 W10       29.89S
L.A. DOWNTOWN  CLEAR     70  62  76 CALM      29.88R

$$

THE INLAND EMPIRE

CITY           SKY/WX    TMP DP  RH WIND       PRES   REMARKS
CORONA         CLEAR     72  59  63 W9        29.89R
CHINO          CLEAR     73  58  59 W13       29.90R
ONTARIO        CLEAR     74  57  55 W9        29.89R
SAN BERNARDINO CLEAR     75  54  46 SW8       29.90R
RIVERSIDE AP   CLEAR     74  58  57 W8        29.90R
MORENO VALLEY    N/A     74  62  65 W5        29.87R
MARCH ARB      CLEAR     72  57  59 NW5       29.91R
HORSETHIEF CYN   N/A     72  56  55 W3        29.91R
PERRIS           N/A     75  57  53 W3        29.92R
MENIFEE          N/A     74  56  53 SE6       29.95R
HEMET EAST       N/A     74  50  42 CALM      29.90R
FRENCH VALLEY  FAIR      70  54  56 S6        29.92R
TEMECULA         N/A     72  59  63 CALM      29.88R

$$

SAN BERNARDINO AND RIVERSIDE COUNTY MOUNTAINS

CITY           SKY/WX    TMP DP  RH WIND       PRES   REMARKS
BIG BEAR AP    CLEAR     59  37  44 CALM      30.20R
PINE COVE        N/A     63  31  30 CALM      29.85R

$$

SOUTHERN DESERT INCLUDING THE COACHELLA VALLEY

CITY           SKY/WX    TMP DP  RH WIND       PRES   REMARKS
PALM SPRINGS   CLEAR     92  53  26 NW21G26   29.74R
THOUSAND PALMS   N/A     89  54  29 W17       29.70R
PALM DESERT      N/A     92  56  29 CALM      27.90S
THERMAL        CLEAR     94  52  24 NW13      29.67R
BLYTHE         CLEAR     97  33  10 SW9       29.71R
IMPERIAL AP    CLEAR     91  46  21 SW6       29.69R
EL CENTRO NAS  CLEAR     91  43  18 SW12      29.71R
YUMA AZ        PTCLDY    95  62  33 S9        29.72R HX  96
MEXICALI       CLEAR     91  57  31 SE6       29.71R

$$

UPPER DESERT

CITY           SKY/WX    TMP DP  RH WIND       PRES   REMARKS
VICTORVILLE AP CLEAR     81  48  32 SW10      29.93R
HESPERIA         N/A     75  53  45 W7        29.90R
APPLE VALLEY     N/A     78  50  38 SW2       29.97R
PALMDALE       CLEAR     77  53  43 SW9       29.92R
LANCASTER      CLEAR     76  49  38 W10       29.91R
EDWARDS AFB    CLEAR     80  35  19 SW10      29.87R
DAGGETT        CLEAR     91  34  13 W22       29.83R
29 PALMS N     PTCLDY    88  44  21 SW15      29.88R
NEEDLES        CLEAR     98  19   6 SW7       29.74R

$$

REGIONAL REPORTS

CITY           SKY/WX    TMP DP  RH WIND       PRES   REMARKS
SANTA BARBARA  CLEAR     68  61  78 SE9       29.88R
SANDBERG       CLEAR     69  37  30 NW22      30.06S
LAS VEGAS NV   PTCLDY    96  27   8 SW6       29.75R
PHOENIX AZ     CLEAR    102  52  18 W10       29.75R HX  99
TIJUANA        PTCLDY    66  57  72 W7        29.93

$$

OFFSHORE ISLANDS

CITY           SKY/WX    TMP DP  RH WIND       PRES   REMARKS
CATALINA ARPT  FOG       61  61 100 SW7       29.94R VSB 1/2
SAN NICOLAS IS CLOUDY   N/A N/A N/A W18       29.91S

$$

MARINE AND OFFSHORE BUOY REPORTS

STATION/POSITION SKY/WX   TEMP    WIND        PRES    SWELL
                          AIR SEA DIR/SP/G            HT/PER/DIR
                          (F)     (DEG/KT/KT) (MB)    (FT/S/D)
TANNER BANKS               65 68  310/ 17/ 21 1012.9R   5/290/17
S CLEMENTE BASIN           68 70  320/  8/ 10 1012.2R   3/250/17
SAN NICOLAS IS.               66                N/A     3/290/11
SO. S. ROSA ISLA           63 67  310/ 19/ 23 1011.5S   5/ 9
W. S. BARBARA CH           61 61  320/ 19/ 23 1011.7R   5/310/ 9
M. S. BARBARA CH           65 67  260/ 10/ 12 1011.6R
S. MONICA BASIN            67 71  280/ 10/ 12 1012.0R   3/200/17
S PEDRO CHANNEL               72                N/A     2/230/18
DANA POINT                    73                N/A     2/190/18
OCEANSIDE OFFSHR              72                N/A     2/180/20
TORREY PINES OTR              72                N/A     2/220/17
LA JOLLA 1                 68 74  270/  4/  5 1012.1R
MISSION BAY BUOY              73                N/A     2/210/18
SAN DIEGO BAY                 75              1012.7R
POINT LOMA SOUTH              72                N/A     3/210/18

$$



USA.gov is the U.S. government's official web portal to all federal, state and local government web resources and services.